Regional Weather Roundup
Issued by NWS

Home | Current Version | Previous Version | Graphics & Text | Print | Product List | Glossary On
Versions: 1 2 3 4 5 6 7 8 9 10 11 12 13 14 15 16 17 18 19 20 21 22 23 24 25 26 27 28 29 30 31 32 33 34 35 36 37 38 39 40 41 42 43 44 45 46 47 48 49 50
000
ASUS45 KABQ 291010
RWRNM
WEATHER ROUNDUP FOR NEW MEXICO
NATIONAL WEATHER SERVICE ALBUQUERQUE NM
300 AM MST THU JAN 29 2015

NOTE: "FAIR" MEANS FEW OR NO CLOUDS BELOW 12,000 FEET AGL WITH NO
       SIGNIFICANT WEATHER OR OBSTRUCTIONS TO VISION.

      THIS PRODUCT IS RELEASED AS TWO VERSIONS.  ONE VERSION NEAR
      THE TOP OF THE HOUR CONTAINING PRELIMINARY DATA FROM ALBUQUERQUE
      AND OTHER STATIONS.  A FINAL VERSION WITH ADDITIONAL DATA IS
      ISSUED ABOUT 10 MINUTES AFTER THE HOUR.

NMZ501-503-504-510>518-291100-
NORTHWEST PLATEAU/NORTHCENTRAL MOUNTAINS

CITY           SKY/WX    TMP DP  RH WIND       PRES   REMARKS
FARMINGTON     PTCLDY    35  27  72 NE5       30.30R WCI  31
LOS ALAMOS     CLOUDY    39  26  60 W5        30.33S
SANTA FE       CLOUDY    39  28  64 N7        30.29F WCI  34
TAOS           CLOUDY    30  25  80 E7        30.34S WCI  23
ANGEL FIRE     FAIR      24  23  95 CALM      30.40R

$$
NMZ402-403-502-505>509-291100-
WESTCENTRAL MOUNTAINS/SOUTHWEST MOUNTAINS

CITY           SKY/WX    TMP DP  RH WIND       PRES   REMARKS
GALLUP         CLOUDY    36  30  79 CALM      30.31R
GRANTS         CLOUDY    32  30  91 CALM      30.33R
SILVER CITY    PTCLDY    41  32  70 N10       30.25R

$$
NMZ407-409-411-412-291100-
SOUTHERN DESERTS

CITY           SKY/WX    TMP DP  RH WIND       PRES   REMARKS
LORDSBURG      FAIR      36  32  87 S3        30.20S
DEMING         MOCLDY    37  31  78 CALM      30.20S
LAS CRUCES     MOCLDY    44  38  80 NW6       30.21S
HOLLOMAN AFB   MOCLDY    47  36  65 VRB6      30.18S
ALAMOGORDO     MOCLDY    50  34  53 N8        30.20S
T OR C         MOCLDY    47  32  56 N3        30.23S

$$
NMZ519>523-291100-
CENTRAL VALLEYS/CENTRAL HIGHLANDS

CITY           SKY/WX    TMP DP  RH WIND       PRES   REMARKS
ALBUQUERQUE    CLOUDY    44  30  57 NW6       30.29R
DOUBLE EAGLE   CLOUDY    40  28  64 N5        30.30S
MORIARTY ARPT  FAIR      34  30  84 CALM      30.32S
CLINES CORNERS CLOUDY    42  28  57 E17G24    30.32R
BELEN          FAIR      36  30  80 CALM      30.29S
SOCORRO        FAIR      45  32  61 NW7       30.27S

$$
NMZ524>526-539-540-291100-
SOUTHCENTRAL MOUNTAINS

CITY           SKY/WX    TMP DP  RH WIND       PRES   REMARKS
RUIDOSO        CLOUDY    45  32  61 NW3       30.33R

$$
NMZ527>531-291100-
NORTHEAST HIGHLANDS/NORTHEAST PLAINS

CITY           SKY/WX    TMP DP  RH WIND       PRES   REMARKS
LAS VEGAS      CLOUDY    35  28  75 NE7       30.36R WCI  29
RATON          CLOUDY    39  29  67 N13       30.35R WCI  31
CLAYTON        MOCLDY    42  31  64 N18       30.33R

$$
NMZ532>537-291100-
EASTCENTRAL PLAINS

CITY           SKY/WX    TMP DP  RH WIND       PRES   REMARKS
TUCUMCARI      MOCLDY    41  33  73 CALM      30.31R
CANNON AFB     MOCLDY    43  34  69 NE18      30.24R
CLOVIS AIRPORT MOCLDY    43  32  65 NE16      30.25R

$$
NMZ028-029-538-291100-
SOUTHEAST PLAINS

CITY           SKY/WX    TMP DP  RH WIND       PRES   REMARKS
ROSWELL        MOCLDY    48  37  65 W7        30.19R
ARTESIA        CLOUDY    45  39  81 N7        30.20R
CARLSBAD       PTCLDY    51  37  58 NW15      30.17R
HOBBS          CLEAR     39  37  93 NW9       30.18S WCI  33


$$



USA.gov is the U.S. government's official web portal to all federal, state and local government web resources and services.